Location: Finney State Fishing Lake and Wildlife Area
(38.1834°N, 100.3310°W)
Time: 14:32:24
(UTC+00:00)

COSMO-SKYMED 1 - Pass Details

Date: 17 October 2021
Orbit: 621 x 623 km, 97.9° (Epoch: 05 December)

Event Time Altitude Azimuth Distance (km) Brightness Sun altitude
Rises 12:02:15 0° 170° (S) 2,887 6.2 -10.6°
Reaches altitude 10° 12:04:26 10° 172° (S) 1,986 5.3 -10.2°
Maximum altitude 12:08:45 77° 258° (WSW) 644 2.5 -9.3°
Drops below altitude 10° 12:13:07 10° 345° (NNW) 2,001 5.0 -8.5°
Sets 12:15:19 0° 346° (NNW) 2,912 5.8 -8.0°
